TimeEDT,TemperatureF,Dew PointF,Humidity,Sea Level PressureIn,VisibilityMPH,Wind Direction,Wind SpeedMPH,Gust SpeedMPH,PrecipitationIn,Events,Conditions,WindDirDegrees,DateUTC
12:54 AM,36.0,28.0,73,30.12,10.0,WNW,6.9,-,N/A,,Clear,300,2013-03-30 04:54:00
1:54 AM,37.9,28.0,68,30.12,10.0,WNW,9.2,-,N/A,,Clear,290,2013-03-30 05:54:00
2:54 AM,37.9,28.0,68,30.12,10.0,WNW,9.2,-,N/A,,Clear,290,2013-03-30 06:54:00
3:54 AM,37.9,28.0,68,30.11,10.0,WNW,9.2,-,N/A,,Scattered Clouds,290,2013-03-30 07:54:00
4:54 AM,37.0,28.0,70,30.11,10.0,WNW,11.5,-,N/A,,Scattered Clouds,300,2013-03-30 08:54:00
5:54 AM,36.0,27.0,70,30.12,10.0,WNW,10.4,-,N/A,,Clear,300,2013-03-30 09:54:00
6:54 AM,35.1,27.0,72,30.13,10.0,NW,9.2,-,N/A,,Clear,310,2013-03-30 10:54:00
7:54 AM,39.0,28.0,65,30.14,10.0,WNW,8.1,-,N/A,,Clear,290,2013-03-30 11:54:00
8:54 AM,43.0,28.0,56,30.14,10.0,WNW,11.5,-,N/A,,Clear,300,2013-03-30 12:54:00
9:54 AM,48.0,28.0,46,30.14,10.0,West,9.2,-,N/A,,Clear,270,2013-03-30 13:54:00
10:54 AM,50.0,26.1,39,30.14,10.0,Variable,5.8,-,N/A,,Clear,0,2013-03-30 14:54:00
11:54 AM,53.1,25.0,34,30.12,10.0,NW,5.8,-,N/A,,Scattered Clouds,310,2013-03-30 15:54:00
12:54 PM,54.0,19.9,26,30.10,10.0,NW,10.4,-,N/A,,Clear,310,2013-03-30 16:54:00
1:54 PM,55.9,19.9,25,30.08,10.0,Variable,6.9,18.4,N/A,,Mostly Cloudy,0,2013-03-30 17:54:00
2:54 PM,55.9,19.0,24,30.06,10.0,Variable,4.6,16.1,N/A,,Mostly Cloudy,0,2013-03-30 18:54:00
3:54 PM,53.1,18.0,25,30.06,10.0,NNW,8.1,16.1,N/A,,Mostly Cloudy,340,2013-03-30 19:54:00
4:54 PM,54.0,18.0,24,30.05,10.0,NW,9.2,-,N/A,,Scattered Clouds,320,2013-03-30 20:54:00
5:54 PM,55.9,17.1,22,30.06,10.0,WNW,10.4,-,N/A,,Mostly Cloudy,290,2013-03-30 21:54:00
6:54 PM,53.1,18.0,25,30.06,10.0,NW,8.1,-,N/A,,Clear,320,2013-03-30 22:54:00
7:54 PM,44.1,21.0,40,30.08,10.0,NW,3.5,-,N/A,,Clear,320,2013-03-30 23:54:00
8:54 PM,39.0,26.1,60,30.09,10.0,Calm,Calm,-,N/A,,Clear,0,2013-03-31 00:54:00
9:54 PM,36.0,25.0,64,30.10,10.0,Calm,Calm,-,N/A,,Clear,0,2013-03-31 01:54:00
10:54 PM,34.0,24.1,67,30.11,10.0,Calm,Calm,-,N/A,,Clear,0,2013-03-31 02:54:00
11:54 PM,32.0,25.0,75,30.12,10.0,Calm,Calm,-,N/A,,Clear,0,2013-03-31 03:54:00